Total_Precipitation_Accumulation
0.76 0.99 1.22 1.47 1.77 2.13 2.30 2.27 2.22 2.38 2.59 2.43 2.21 2.01 1.80 1.63 1.45 1.29 1.17 1.10 1.00 0.91 0.81 0.71 0.70 0.66 0.62 0.60 0.59 0.56 0.52 0.50 0.49 0.49 0.42 0.32 0.27 0.23 0.18 0.17 0.17 0.16 0.16
0.68 0.91 1.12 1.35 1.53 1.96 2.22 2.24 2.30 2.43 2.59 2.47 2.33 2.29 2.22 2.01 1.82 1.68 1.41 1.22 1.11 1.02 0.97 0.87 0.79 0.76 0.74 0.70 0.69 0.69 0.67 0.63 0.66 0.70 0.71 0.57 0.43 0.30 0.24 0.23 0.22 0.22 0.24
0.64 0.79 0.97 1.17 1.26 1.53 1.91 2.08 2.14 2.29 2.41 2.55 2.80 2.80 2.70 2.36 1.92 1.63 1.53 1.43 1.39 1.29 1.16 1.13 1.06 0.91 0.84 0.78 0.74 0.73 0.73 0.72 0.71 0.71 0.81 0.77 0.59 0.44 0.35 0.28 0.25 0.25 0.27
0.62 0.74 0.85 0.96 1.08 1.21 1.55 1.90 2.09 2.23 2.25 2.32 2.55 2.65 2.52 2.18 1.83 1.62 1.63 1.68 1.63 1.59 1.53 1.40 1.34 1.22 1.06 0.93 0.90 0.87 0.86 0.89 0.86 0.82 0.76 0.71 0.64 0.64 0.53 0.38 0.32 0.30 0.29
0.65 0.72 0.76 0.80 0.88 1.03 1.35 1.67 1.90 2.12 2.16 2.09 2.19 2.40 2.48 2.35 2.19 2.01 1.88 1.81 1.75 1.64 1.62 1.59 1.51 1.41 1.30 1.21 1.15 1.09 1.06 1.05 1.01 0.95 0.89 0.86 0.77 0.72 0.73 0.54 0.38 0.38 0.37
0.73 0.73 0.74 0.74 0.80 0.87 1.03 1.34 1.62 1.93 2.11 2.06 2.09 2.17 2.22 2.29 2.21 2.06 2.02 1.93 1.90 1.77 1.62 1.59 1.58 1.52 1.48 1.43 1.40 1.37 1.27 1.20 1.15 1.10 1.04 1.04 0.99 0.86 0.88 0.81 0.60 0.54 0.48
0.66 0.64 0.63 0.63 0.73 0.83 0.89 1.09 1.25 1.51 1.78 1.91 1.95 1.98 2.06 2.11 2.15 2.12 2.09 2.07 1.93 1.77 1.68 1.62 1.62 1.62 1.55 1.53 1.53 1.49 1.38 1.31 1.25 1.22 1.18 1.14 1.08 1.04 1.08 1.11 0.96 0.82 0.67
0.69 0.66 0.62 0.66 0.77 0.80 0.87 0.98 1.08 1.20 1.42 1.62 1.69 1.73 1.85 1.93 1.90 1.97 1.96 1.91 1.84 1.75 1.73 1.73 1.65 1.64 1.62 1.57 1.55 1.50 1.40 1.35 1.31 1.26 1.25 1.22 1.15 1.16 1.20 1.25 1.32 1.22 0.96
0.62 0.65 0.66 0.69 0.74 0.78 0.83 0.91 1.00 1.02 1.13 1.31 1.44 1.55 1.59 1.61 1.56 1.58 1.60 1.63 1.65 1.64 1.60 1.60 1.55 1.51 1.49 1.48 1.50 1.46 1.37 1.32 1.27 1.23 1.22 1.20 1.14 1.16 1.20 1.26 1.41 1.58 1.42
0.62 0.65 0.68 0.66 0.67 0.71 0.74 0.82 0.86 0.86 0.91 1.01 1.08 1.24 1.34 1.35 1.38 1.39 1.36 1.34 1.33 1.35 1.37 1.38 1.38 1.35 1.35 1.34 1.34 1.32 1.31 1.29 1.21 1.16 1.15 1.12 1.08 1.11 1.17 1.24 1.31 1.46 1.57
0.64 0.69 0.72 0.70 0.68 0.72 0.74 0.76 0.72 0.73 0.77 0.84 0.88 0.94 1.05 1.13 1.19 1.20 1.13 1.14 1.10 1.07 1.09 1.07 1.08 1.12 1.14 1.16 1.17 1.17 1.18 1.21 1.17 1.15 1.15 1.14 1.11 1.12 1.12 1.15 1.19 1.25 1.36
0.57 0.62 0.69 0.69 0.68 0.71 0.73 0.76 0.70 0.67 0.69 0.74 0.75 0.78 0.86 0.97 1.02 1.07 1.02 0.96 0.98 0.92 0.91 0.89 0.86 0.86 0.88 0.92 0.94 0.95 0.99 1.04 1.05 1.05 1.08 1.08 1.11 1.14 1.11 1.10 1.08 1.06 1.06
0.51 0.53 0.55 0.61 0.64 0.66 0.69 0.75 0.73 0.65 0.63 0.64 0.64 0.68 0.74 0.82 0.87 0.89 0.92 0.86 0.89 0.84 0.80 0.78 0.76 0.74 0.73 0.75 0.80 0.85 0.88 0.91 0.92 0.92 0.95 0.96 1.00 1.02 0.99 0.98 0.95 0.93 0.95
0.39 0.40 0.44 0.49 0.53 0.58 0.63 0.66 0.68 0.68 0.67 0.64 0.59 0.62 0.66 0.77 0.81 0.77 0.80 0.80 0.85 0.88 0.79 0.74 0.71 0.70 0.71 0.72 0.75 0.82 0.87 0.87 0.87 0.88 0.89 0.87 0.84 0.82 0.81 0.84 0.87 0.93 1.01
0.28 0.30 0.31 0.34 0.40 0.44 0.49 0.53 0.58 0.61 0.65 0.66 0.63 0.61 0.62 0.70 0.76 0.69 0.70 0.72 0.75 0.86 0.86 0.81 0.77 0.74 0.72 0.75 0.80 0.81 0.85 0.86 0.85 0.82 0.79 0.79 0.80 0.77 0.75 0.77 0.82 0.91 1.04
0.18 0.19 0.20 0.22 0.24 0.29 0.35 0.40 0.45 0.50 0.58 0.61 0.62 0.61 0.60 0.63 0.72 0.70 0.68 0.69 0.72 0.81 0.88 0.92 0.90 0.84 0.82 0.92 0.90 0.84 0.84 0.87 0.85 0.81 0.74 0.72 0.76 0.73 0.74 0.76 0.84 0.97 1.11
0.13 0.13 0.13 0.15 0.16 0.19 0.24 0.29 0.33 0.38 0.45 0.53 0.58 0.61 0.63 0.66 0.72 0.73 0.73 0.77 0.84 0.90 0.91 0.97 1.00 0.98 1.00 1.01 0.89 0.87 0.80 0.80 0.80 0.77 0.73 0.69 0.66 0.69 0.64 0.70 0.82 0.91 1.01
0.12 0.14 0.14 0.14 0.14 0.16 0.17 0.19 0.24 0.30 0.34 0.40 0.48 0.52 0.57 0.60 0.63 0.70 0.76 0.81 0.86 0.92 0.96 0.98 0.98 0.95 0.95 0.94 0.84 0.80 0.74 0.74 0.74 0.72 0.68 0.69 0.69 0.68 0.73 0.78 0.84 0.77 0.72
0.11 0.12 0.12 0.13 0.14 0.14 0.14 0.16 0.21 0.27 0.31 0.38 0.45 0.50 0.58 0.61 0.65 0.71 0.74 0.78 0.84 0.88 0.85 0.86 0.88 0.87 0.88 0.85 0.76 0.72 0.67 0.68 0.65 0.63 0.61 0.62 0.64 0.75 0.91 0.95 0.95 0.78 0.62
0.11 0.12 0.12 0.13 0.15 0.17 0.19 0.21 0.24 0.28 0.31 0.38 0.46 0.49 0.57 0.67 0.70 0.73 0.72 0.70 0.75 0.81 0.76 0.72 0.71 0.70 0.72 0.75 0.70 0.67 0.63 0.65 0.62 0.58 0.57 0.62 0.64 0.76 0.91 0.89 0.93 0.87 0.72
0.11 0.12 0.13 0.15 0.19 0.25 0.27 0.28 0.31 0.35 0.37 0.38 0.43 0.43 0.47 0.54 0.57 0.59 0.60 0.60 0.62 0.64 0.60 0.57 0.58 0.56 0.56 0.61 0.59 0.57 0.55 0.58 0.59 0.55 0.50 0.51 0.67 0.77 0.83 0.80 0.72 0.81 0.88
0.15 0.14 0.15 0.17 0.19 0.26 0.32 0.33 0.32 0.34 0.33 0.33 0.37 0.38 0.41 0.44 0.46 0.48 0.51 0.53 0.51 0.51 0.49 0.46 0.47 0.45 0.46 0.49 0.50 0.52 0.54 0.59 0.55 0.50 0.47 0.49 0.64 0.65 0.66 0.65 0.71 0.86 0.86
0.15 0.14 0.14 0.15 0.17 0.20 0.27 0.34 0.34 0.32 0.32 0.33 0.35 0.35 0.34 0.36 0.40 0.40 0.42 0.43 0.41 0.41 0.40 0.39 0.38 0.38 0.40 0.45 0.52 0.53 0.58 0.60 0.55 0.49 0.54 0.57 0.58 0.55 0.55 0.65 0.76 0.76 0.69
0.13 0.13 0.13 0.15 0.17 0.19 0.20 0.24 0.27 0.28 0.29 0.29 0.30 0.33 0.34 0.32 0.31 0.33 0.35 0.38 0.39 0.39 0.38 0.38 0.36 0.35 0.36 0.40 0.44 0.50 0.53 0.54 0.55 0.56 0.56 0.53 0.52 0.52 0.54 0.60 0.62 0.63 0.71
0.13 0.15 0.14 0.15 0.16 0.16 0.17 0.17 0.18 0.20 0.23 0.26 0.26 0.27 0.28 0.29 0.29 0.28 0.31 0.35 0.37 0.42 0.46 0.45 0.44 0.42 0.39 0.41 0.50 0.54 0.54 0.55 0.57 0.58 0.52 0.49 0.48 0.48 0.48 0.52 0.55 0.59 0.72
0.14 0.15 0.14 0.14 0.15 0.15 0.16 0.16 0.16 0.18 0.20 0.22 0.23 0.25 0.26 0.26 0.26 0.27 0.26 0.30 0.33 0.38 0.43 0.47 0.49 0.46 0.46 0.49 0.52 0.52 0.56 0.60 0.61 0.60 0.53 0.50 0.49 0.50 0.51 0.53 0.57 0.60 0.72